Swansboro, NC

10:32 PM EDT on September 28, 2016 (GMT -0400)
Bogue McAlf

Weather History for KNJM - May, 2014

Change the Weather History Date:

Tuesday, May 6, 2014

  Actual Average (KNKT) Record (KNKT)
Temperature  
Mean Temperature 75 °F -  
Max Temperature 86 °F 75 °F 84 °F (2000)
Min Temperature 64 °F 55 °F 45 °F (2011)
Cooling Degree Days 10    
Growing Degree Days 25 (Base 50)    
Moisture  
Dew Point 61 °F    
Average Humidity 66    
Maximum Humidity 87    
Minimum Humidity 38    
Precipitation  
Precipitation 0.00 in - - ()
Sea Level Pressure  
Sea Level Pressure 29.94 in    
Wind  
Wind Speed 9 mph (NNW)    
Max Wind Speed 13 mph    
Max Gust Speed 17 mph    
Visibility 10 miles    
Events      
Averages and records for this station are not official NWS values.
T = Trace of Precipitation, MM = Missing Value Source: NWS Daily Summary

Daily Weather History Graph

Daily Weather History Graph

Search for Another Location

Airport or City:

Trip Planner

Search our weather history database for the weather conditions in past years. The results will help you decide how hot, cold, wet, or windy it might be!

Date:

Astronomy

May. 06, 2014 Rise Set
Actual Time 6:12 AM EDT 7:57 PM EDT
Civil Twilight 5:45 AM EDT 8:24 PM EDT
Nautical Twilight 5:12 AM EDT 8:57 PM EDT
Astronomical Twilight 4:37 AM EDT 9:32 PM EDT
Moon 12:24 PM EDT (5/6) 1:17 AM EDT (5/6)
Length of Visible Light 14h 38m
Length of Day
13h 44m
Waxing Crescent, 46% of the Moon is Illuminated
May 6
Waxing Crescent
May 6
First Quarter
May 14
Full
May 21
Last Quarter
May 28
New

Hourly Weather History & Observations

Time (EDT) Temp. Heat Index Dew Point Humidity Pressure Visibility Wind Dir Wind Speed Gust Speed Precip Events Conditions
12:57 AM 68.0 °F - 62.1 °F 81% 29.92 in 10.0 mi SSE 10.4 mph - N/A   Unknown
1:57 AM 69.1 °F - 63.0 °F 81% 29.90 in 10.0 mi SSE 10.4 mph - N/A   Unknown
2:57 AM 68.0 °F - 64.0 °F 87% 29.87 in 9.0 mi SSE 8.1 mph - N/A   Unknown
7:57 AM 68.0 °F - 62.1 °F 81% 29.91 in 10.0 mi WNW 9.2 mph - N/A   Clear
8:57 AM 70.0 °F - 62.1 °F 76% 29.92 in 10.0 mi NNW 10.4 mph - N/A   Clear
9:57 AM 72.0 °F - 62.1 °F 71% 29.93 in 10.0 mi WNW 10.4 mph - N/A   Partly Cloudy
10:57 AM 75.9 °F - 62.1 °F 62% 29.93 in 10.0 mi NW 8.1 mph - N/A   Scattered Clouds
11:57 AM 80.1 °F 81.1 °F 61.0 °F 52% 29.93 in 10.0 mi NW 11.5 mph - N/A   Scattered Clouds
12:57 PM 82.9 °F 83.7 °F 62.1 °F 49% 29.92 in 10.0 mi West 8.1 mph - N/A   Scattered Clouds
1:57 PM 84.9 °F 84.2 °F 57.9 °F 40% 29.91 in 10.0 mi NW 8.1 mph 17.3 mph N/A   Unknown
2:57 PM 86.0 °F 85.0 °F 57.9 °F 38% 29.91 in 10.0 mi Variable 6.9 mph 17.3 mph N/A   Unknown
3:57 PM 86.0 °F 85.0 °F 57.9 °F 38% 29.89 in 10.0 mi Variable 5.8 mph - N/A   Unknown
4:57 PM 82.0 °F 83.1 °F 63.0 °F 52% 29.91 in 10.0 mi SSW 9.2 mph - N/A   Unknown
5:57 PM 78.1 °F - 63.0 °F 60% 29.92 in 10.0 mi SW 9.2 mph - N/A   Unknown
6:57 PM 78.1 °F - 63.0 °F 60% 29.93 in 10.0 mi Calm Calm - N/A   Unknown
7:57 PM 70.0 °F - 64.0 °F 81% 29.97 in 10.0 mi East 11.5 mph - N/A   Unknown
8:57 PM 70.0 °F - 63.0 °F 78% 29.99 in 10.0 mi ENE 8.1 mph - N/A   Unknown
9:57 PM 66.9 °F - 59.0 °F 76% 30.02 in 10.0 mi East 12.7 mph - N/A   Unknown
10:57 PM 64.0 °F - 57.9 °F 80% 30.03 in 10.0 mi ENE 11.5 mph - N/A   Unknown
11:57 PM 64.0 °F - 57.9 °F 80% 30.04 in 10.0 mi ENE 10.4 mph - N/A   Unknown